Location: Newark
(16.3678°N, 77.8722°E)
Time: 23:23:02
(UTC+00:00)

Tiros 1 - Pass Details

Date: 13 December 2019
Orbit: 630 x 664 km, 48.4° (Epoch: 26 January)

Event Time Altitude Azimuth Distance (km) Brightness Sun altitude
Rises 07:17:49 0° 326° (NW) 2,909 10.2 49.6°
Reaches altitude 10° 07:20:11 10° 331° (NNW) 1,999 9.5 49.4°
Maximum altitude 07:24:39 50° 47° (NE) 796 7.9 49.2°
Drops below altitude 10° 07:29:07 10° 123° (ESE) 1,998 10.0 48.9°
Sets 07:31:29 0° 128° (SE) 2,907 10.7 48.7°
